WP3OF-2 Weather Reports


time (UTC)temp
C
wind
direction
speed
KPH
gust
KPH
rain 1hr
cm
rain 24hr
cm
rain mn
cm
humidity
%
barometer
mb
20260505094915 18 149 25.7 30.6 0.00 0.00 0.00 99 1024.9
20260505094412 18 148 24.1 35.4 0.00 0.00 0.00 99 1024.9
20260505093908 18 127 19.3 29.0 0.00 0.00 0.00 99 1024.9
20260505093405 18 161 19.3 29.0 0.00 0.00 0.00 99 1024.9
20260505092902 18 154 17.7 30.6 0.00 0.00 0.00 99 1024.9
20260505092400 18 123 17.7 27.4 0.00 0.00 0.00 99 1024.9
20260505091857 18 149 17.7 35.4 0.00 0.00 0.00 99 1024.9
20260505091355 18 172 20.9 30.6 0.00 0.00 0.00 99 1024.9
20260505090853 18 157 17.7 27.4 0.00 0.00 0.00 99 1024.9
20260505090351 18 151 12.9 38.6 0.00 0.00 0.00 99 1024.9
20260505085848 18 134 16.1 25.7 0.00 0.00 0.00 99 1024.9
20260505085346 18 151 9.7 29.0 0.00 0.00 0.00 99 1024.9
20260505084843 18 156 19.3 29.0 0.00 0.00 0.00 99 1024.9
20260505084342 18 160 12.9 22.5 0.00 0.00 0.00 99 1025.2
20260505083839 18 182 9.7 24.1 0.00 0.00 0.00 99 1024.9
20260505083336 18 232 12.9 25.7 0.00 0.00 0.00 99 1024.9
20260505082832 18 140 20.9 25.7 0.00 0.00 0.00 99 1024.9
20260505082329 18 161 17.7 27.4 0.00 0.00 0.00 99 1024.9
20260505081825 18 148 8.0 27.4 0.00 0.00 0.00 99 1025.2
20260505081322 18 158 11.3 20.9 0.00 0.00 0.00 99 1025.2
20260505080819 18 155 11.3 17.7 0.00 0.00 0.00 99 1025.2
20260505080315 18 147 19.3 27.4 0.00 0.00 0.00 99 1025.2
20260505075810 18 134 20.9 30.6 0.00 0.00 0.00 99 1024.9
20260505075308 18 179 12.9 27.4 0.00 0.00 0.00 99 1024.9
20260505074805 18 148 17.7 25.7 0.00 0.00 0.00 99 1025.2
20260505074302 18 144 16.1 27.4 0.00 0.00 0.00 99 1024.9
20260505073759 18 152 16.1 33.8 0.00 0.00 0.00 99 1024.9
20260505073257 18 142 20.9 35.4 0.00 0.00 0.00 99 1024.9
20260505072754 18 108 20.9 25.7 0.00 0.00 0.00 99 1024.9
20260505072250 18 159 14.5 20.9 0.00 0.00 0.00 99 1024.9
20260505071746 18 168 11.3 27.4 0.00 0.00 0.00 99 1024.9
20260505071242 18 122 17.7 24.1 0.00 0.00 0.00 99 1024.9
20260505070740 18 174 11.3 24.1 0.00 0.00 0.00 99 1024.9
20260505070236 18 136 9.7 24.1 0.00 0.00 0.00 99 1024.9
20260505065732 18 143 14.5 24.1 0.00 0.00 0.00 99 1024.9
20260505065229 18 158 11.3 22.5 0.00 0.00 0.00 99 1024.9
20260505064726 18 166 6.4 20.9 0.00 0.00 0.00 99 1024.9
20260505064224 18 151 16.1 22.5 0.00 0.00 0.00 99 1024.9
20260505063721 18 129 24.1 29.0 0.00 0.00 0.00 99 1025.2
20260505063216 18 157 11.3 35.4 0.00 0.00 0.00 99 1025.2
20260505062713 18 135 8.0 20.9 0.00 0.00 0.00 99 1024.9
20260505062206 18 120 9.7 20.9 0.00 0.00 0.00 99 1025.2
20260505061702 18 173 12.9 22.5 0.00 0.00 0.00 99 1025.2
20260505061200 18 125 12.9 33.8 0.00 0.00 0.00 99 1025.2
20260505060657 18 159 8.0 24.1 0.00 0.00 0.00 99 1025.2
20260505060154 18 133 12.9 24.1 0.00 0.00 0.00 99 1025.2
20260505055649 18 145 11.3 22.5 0.00 0.00 0.00 99 1025.6
20260505055146 18 163 19.3 29.0 0.00 0.00 0.00 99 1024.9
20260505054644 18 169 12.9 37.0 0.00 0.00 0.00 99 1025.6
20260505054141 18 154 17.7 25.7 0.00 0.00 0.00 99 1025.2
20260505053639 18 167 16.1 20.9 0.00 0.00 0.00 99 1025.6
20260505053135 18 151 16.1 24.1 0.00 0.00 0.00 99 1025.6
20260505052632 19 151 9.7 24.1 0.00 0.00 0.00 99 1025.6
20260505052130 18 161 20.9 29.0 0.00 0.00 0.00 99 1025.6
20260505051626 18 158 14.5 29.0 0.00 0.00 0.00 99 1026.0
20260505051125 18 177 11.3 33.8 0.00 0.00 0.00 99 1026.0
20260505050622 18 162 14.5 25.7 0.00 0.00 0.00 99 1026.0
20260505050120 18 197 12.9 27.4 0.00 0.00 0.00 99 1026.0
20260505041550 18 151 8.0 27.4 0.00 0.00 0.00 99 1026.3
20260505041047 18 163 22.5 29.0 0.00 0.00 0.00 99 1026.3
20260505040544 18 241 8.0 22.5 0.00 0.00 0.00 99 1026.3
20260505040042 18 169 12.9 24.1 0.00 0.00 0.00 99 1026.7
20260505035537 18 167 19.3 27.4 0.00 0.00 0.00 99 1026.7
20260505035034 18 187 14.5 29.0 0.00 0.00 0.00 99 1026.7
20260505034531 19 173 14.5 22.5 0.00 0.00 0.00 99 1026.7
20260505034028 19 180 12.9 20.9 0.00 0.00 0.00 99 1026.7
20260505033525 19 196 14.5 22.5 0.00 0.00 0.00 98 1027.1
20260505033023 18 141 17.7 22.5 0.00 0.00 0.00 98 1026.7
20260505032520 18 162 11.3 25.7 0.00 0.00 0.00 98 1026.7
20260505032017 18 173 14.5 24.1 0.00 0.00 0.00 99 1027.1
20260505031514 19 134 17.7 27.4 0.00 0.00 0.00 99 1026.7
20260505031010 18 179 17.7 25.7 0.00 0.00 0.00 99 1027.1
20260505030507 19 149 12.9 22.5 0.00 0.00 0.00 98 1027.1
20260505030003 19 205 9.7 20.9 0.00 0.00 0.00 98 1026.7
20260505025459 19 164 16.1 22.5 0.00 0.00 0.00 98 1027.1
20260505024959 19 188 12.9 25.7 0.00 0.00 0.00 98 1027.1
20260505024455 19 161 11.3 22.5 0.00 0.00 0.00 98 1027.1
20260505023952 19 164 9.7 20.9 0.00 0.00 0.00 98 1026.7
20260505023449 19 194 14.5 20.9 0.00 0.00 0.00 98 1027.1
20260505022947 19 125 11.3 20.9 0.00 0.00 0.00 98 1026.7
20260505022444 19 136 14.5 25.7 0.00 0.00 0.00 98 1027.1
20260505021941 19 127 14.5 27.4 0.00 0.00 0.00 98 1026.7
20260505021437 19 167 14.5 22.5 0.00 0.00 0.00 98 1026.7
20260505020933 19 147 9.7 24.1 0.00 0.00 0.00 98 1026.7
20260505020428 19 135 14.5 22.5 0.00 0.00 0.00 97 1026.7
20260505015926 19 172 8.0 20.9 0.00 0.00 0.00 97 1026.7
20260505015423 19 161 11.3 16.1 0.00 0.00 0.00 97 1026.7
20260505014920 19 162 11.3 17.7 0.00 0.00 0.00 97 1026.7
20260505014416 19 131 9.7 16.1 0.00 0.00 0.00 97 1026.7
20260505013914 19 166 12.9 17.7 0.00 0.00 0.00 96 1026.7
20260505013410 19 154 4.8 16.1 0.00 0.00 0.00 96 1026.7
20260505012909 19 149 8.0 17.7 0.00 0.00 0.00 96 1026.7
20260505012406 19 170 8.0 20.9 0.00 0.00 0.00 96 1026.7
20260505011902 19 146 9.7 17.7 0.00 0.00 0.00 96 1026.7
20260505011359 19 158 11.3 14.5 0.00 0.00 0.00 96 1026.3
20260505010856 19 154 9.7 14.5 0.00 0.00 0.00 95 1026.3
20260505010351 19 161 17.7 20.9 0.00 0.00 0.00 95 1026.3
20260505005848 20 200 14.5 24.1 0.00 0.00 0.00 94 1026.0
20260505005344 19 168 9.7 24.1 0.00 0.00 0.00 94 1026.0
20260505004842 19 169 9.7 20.9 0.00 0.00 0.00 95 1026.0
20260505004338 20 164 14.5 25.7 0.00 0.00 0.00 95 1026.0
20260505003836 19 190 9.7 17.7 0.00 0.00 0.00 96 1025.6
20260505003333 19 161 9.7 17.7 0.00 0.00 0.00 98 1026.0
20260505002829 19 182 11.3 22.5 0.00 0.00 0.00 98 1026.0
20260505002326 20 203 11.3 24.1 0.00 0.00 0.00 98 1026.0
20260505001824 20 153 19.3 27.4 0.00 0.00 0.00 98 1026.0
20260505001321 19 167 14.5 27.4 0.00 0.00 0.00 98 1026.0
20260505000818 19 187 9.7 29.0 0.00 0.00 0.00 98 1026.0
20260505000316 20 187 11.3 29.0 0.00 0.00 0.00 99 1026.0
20260504235812 20 194 16.1 22.5 0.00 0.00 0.00 99 1026.0
20260504235309 20 150 12.9 25.7 0.00 0.00 0.00 98 1026.0
20260504234806 20 165 12.9 24.1 0.00 0.00 0.00 97 1026.0
20260504234304 20 135 14.5 22.5 0.00 0.00 0.00 97 1025.6
20260504233800 20 159 16.1 22.5 0.00 0.00 0.00 96 1026.0
20260504233255 20 169 8.0 16.1 0.00 0.00 0.00 96 1025.6
20260504232752 20 174 14.5 22.5 0.00 0.00 0.00 96 1026.0
20260504232250 20 198 12.9 20.9 0.00 0.00 0.00 97 1025.6
20260504231746 20 187 19.3 27.4 0.00 0.00 0.00 97 1025.6
20260504231243 20 225 16.1 29.0 0.00 0.00 0.00 97 1025.6
20260504230739 20 176 12.9 24.1 0.00 0.00 0.00 97 1025.6
20260504230237 20 189 17.7 27.4 0.00 0.00 0.00 97 1025.6
20260504225735 20 173 16.1 24.1 0.00 0.00 0.00 97 1025.2
20260504225231 20 167 17.7 27.4 0.00 0.00 0.00 96 1025.2
20260504224728 20 181 12.9 22.5 0.00 0.00 0.00 97 1025.6
20260504224226 20 176 9.7 24.1 0.00 0.00 0.00 97 1025.6
20260504223722 20 182 9.7 24.1 0.00 0.00 0.00 97 1025.6
20260504223217 20 191 20.9 24.1 0.00 0.00 0.00 97 1025.2
20260504222715 20 157 6.4 17.7 0.00 0.00 0.00 97 1025.2
20260504222211 20 202 14.5 17.7 0.00 0.00 0.00 96 1025.2
20260504221709 20 172 6.4 20.9 0.00 0.00 0.00 96 1025.2
20260504221206 20 163 11.3 16.1 0.00 0.00 0.00 96 1024.9
20260504220702 20 181 9.7 20.9 0.00 0.00 0.00 96 1025.2
20260504220200 20 172 11.3 22.5 0.00 0.00 0.00 96 1025.2
20260504215656 20 156 12.9 17.7 0.00 0.00 0.00 95 1024.9
20260504215154 20 160 4.8 22.5 0.00 0.00 0.00 95 1024.9
20260504214649 20 163 9.7 20.9 0.00 0.00 0.00 95 1024.9
20260504214146 21 156 17.7 27.4 0.00 0.00 0.00 94 1024.9
20260504213642 21 168 14.5 27.4 0.00 0.00 0.00 93 1024.9
20260504213139 21 215 12.9 17.7 0.00 0.00 0.00 94 1024.9
20260504212636 21 164 16.1 20.9 0.00 0.00 0.00 94 1024.9
20260504212132 21 154 12.9 22.5 0.00 0.00 0.00 94 1024.9
20260504211630 21 137 9.7 22.5 0.00 0.00 0.00 94 1024.5
20260504211126 21 146 9.7 16.1 0.00 0.00 0.00 94 1024.9
20260504210624 21 168 4.8 24.1 0.00 0.00 0.00 94 1024.9
20260504210120 21 94 0.0 22.5 0.00 0.00 0.00 93 1024.9
20260504205618 22 194 11.3 16.1 0.00 0.00 0.00 91 1024.9
20260504205116 21 145 8.0 24.1 0.00 0.00 0.00 93 1024.9
20260504204614 21 188 11.3 17.7 0.00 0.00 0.00 93 1024.5
20260504204113 21 154 17.7 25.7 0.00 0.00 0.00 92 1024.5
20260504203611 21 154 1.6 20.9 0.00 0.00 0.00 92 1024.9
20260504203108 22 146 8.0 16.1 0.00 0.00 0.00 91 1024.9
20260504202603 22 149 0.0 17.7 0.00 0.00 0.00 90 1024.9
20260504202100 22 179 0.0 6.4 0.00 0.00 0.00 89 1024.9
20260504201556 22 154 9.7 17.7 0.00 0.00 0.00 88 1024.9
20260504201055 22 172 11.3 14.5 0.00 0.00 0.00 89 1024.9
20260504200550 22 181 11.3 24.1 0.00 0.00 0.00 89 1024.9
20260504200048 22 91 11.3 20.9 0.00 0.00 0.00 91 1024.9
20260504195543 22 153 6.4 12.9 0.00 0.00 0.00 90 1024.9
20260504195040 22 165 19.3 24.1 0.00 0.00 0.00 88 1024.9
20260504194537 22 150 16.1 22.5 0.00 0.00 0.00 88 1024.9
20260504194032 22 161 8.0 22.5 0.00 0.00 0.00 90 1024.9
20260504193529 22 161 9.7 24.1 0.00 0.00 0.00 88 1024.9
20260504193028 22 173 14.5 30.6 0.00 0.00 0.00 89 1024.9
20260504192526 22 173 9.7 20.9 0.00 0.00 0.00 88 1025.2
20260504192024 22 147 6.4 22.5 0.00 0.00 0.00 88 1025.2
20260504191521 22 157 17.7 27.4 0.00 0.00 0.00 87 1024.9
20260504191017 22 168 8.0 16.1 0.00 0.00 0.00 88 1024.9
20260504190513 22 151 6.4 22.5 0.00 0.00 0.00 89 1024.9
20260504190009 22 166 6.4 20.9 0.00 0.00 0.00 88 1024.9
20260504185507 22 135 11.3 22.5 0.00 0.00 0.00 86 1024.9
20260504185003 22 165 14.5 20.9 0.00 0.00 0.00 86 1024.9
20260504184458 22 138 11.3 14.5 0.00 0.00 0.00 85 1025.2
20260504183954 22 118 14.5 29.0 0.00 0.00 0.00 85 1025.2
20260504183452 23 180 8.0 29.0 0.00 0.00 0.00 85 1025.2
20260504182949 22 155 11.3 25.7 0.00 0.00 0.00 85 1025.6
20260504182446 22 132 11.3 25.7 0.00 0.00 0.00 85 1025.2
20260504181944 22 140 11.3 17.7 0.00 0.00 0.00 84 1025.6
20260504181440 22 147 9.7 16.1 0.00 0.00 0.00 84 1025.6
20260504180939 22 135 6.4 20.9 0.00 0.00 0.00 85 1025.6
20260504180438 23 137 4.8 24.1 0.00 0.00 0.00 83 1025.6
20260504175935 23 41 8.0 22.5 0.00 0.00 0.00 83 1025.6
20260504175432 23 108 9.7 22.5 0.00 0.00 0.00 82 1025.6
20260504174930 22 201 17.7 22.5 0.00 0.00 0.00 82 1026.0
20260504174427 23 183 14.5 17.7 0.00 0.00 0.00 80 1026.0
20260504173925 23 121 11.3 14.5 0.00 0.00 0.00 80 1026.0
20260504173421 22 127 11.3 30.6 0.00 0.00 0.00 81 1026.0
20260504172919 22 177 16.1 29.0 0.00 0.00 0.00 81 1026.0
20260504172414 23 121 14.5 29.0 0.00 0.00 0.00 80 1026.0
20260504171911 23 176 11.3 17.7 0.00 0.00 0.00 79 1026.0
20260504171408 23 121 19.3 33.8 0.00 0.00 0.00 78 1026.0
20260504170905 23 128 4.8 17.7 0.00 0.00 0.00 80 1026.0
20260504170401 23 154 8.0 17.7 0.00 0.00 0.00 79 1026.3
20260504160320 22 124 17.7 29.0 0.00 0.00 0.00 80 1026.3
20260504150745 21 105 19.3 30.6 0.00 0.00 0.00 87 1026.7
20260504150242 21 140 17.7 27.4 0.00 0.00 0.00 88 1026.7
20260504141211 21 130 16.1 29.0 0.00 0.00 0.00 87 1026.7
20260504140708 21 118 30.6 40.2 0.00 0.00 0.00 87 1026.3
20260504140204 21 147 19.3 40.2 0.00 0.00 0.00 87 1026.3
20260504130632 21 159 12.9 38.6 0.00 0.00 0.00 89 1026.3
20260504130129 21 155 19.3 27.4 0.00 0.00 0.00 88 1026.3
20260504110520 19 144 6.4 17.7 0.00 0.00 0.00 96 1026.0
20260504100437 18 134 8.0 17.7 0.00 0.00 0.00 99 1025.6